Meteo pe oră la Abdrahimovo

Astăzi, 5 August, Joi

Timp Temperatura Precipitaţii Vânt Presiune Umiditate
00:00 +20°C° 0 mm 2 m/s 740 mmHg 76%
01:00 +20°C° 0 mm 2 m/s 740 mmHg 75%
02:00 +20°C° 0 mm 2 m/s 740 mmHg 75%
03:00 +20°C° 0 mm 1 m/s 740 mmHg 76%
04:00 +20°C° 0 mm 1 m/s 739 mmHg 77%
05:00 +21°C° 0 mm 1 m/s 739 mmHg 74%
06:00 +23°C° 0 mm 1 m/s 739 mmHg 71%
07:00 +22°C° 0 mm 0 m/s 739 mmHg 68%
08:00 +25°C° 0 mm 1 m/s 739 mmHg 60%
09:00 +27°C° 0 mm 1 m/s 739 mmHg 52%
10:00 +29°C° 0 mm 2 m/s 739 mmHg 44%
11:00 +29°C° 0 mm 3 m/s 739 mmHg 43%
12:00 +30°C° 0 mm 4 m/s 740 mmHg 42%
13:00 +32°C° 0 mm 5 m/s 740 mmHg 41%
14:00 +30°C° 0.1 mm 4 m/s 739 mmHg 46%
15:00 +28°C° 0.1 mm 4 m/s 739 mmHg 51%
16:00 +27°C° 0.1 mm 3 m/s 739 mmHg 55%
17:00 +27°C° 0 mm 4 m/s 739 mmHg 61%
18:00 +26°C° 0 mm 4 m/s 739 mmHg 67%
19:00 +25°C° 0 mm 4 m/s 739 mmHg 73%
20:00 +22°C° 0.8 mm 4 m/s 740 mmHg 80%
21:00 +20°C° 0.8 mm 3 m/s 740 mmHg 86%
22:00 +19°C° 0.8 mm 3 m/s 740 mmHg 93%
23:00 +18°C° 0 mm 3 m/s 740 mmHg 93%

Mâine, 6 August, Vineri

Timp Temperatura Precipitaţii Vânt Presiune Umiditate
00:00 +17°C° 0 mm 3 m/s 740 mmHg 93%
01:00 +16°C° 0 mm 3 m/s 740 mmHg 93%
02:00 +16°C° 0 mm 3 m/s 741 mmHg 94%
03:00 +15°C° 0 mm 2 m/s 741 mmHg 95%
04:00 +14°C° 0 mm 2 m/s 741 mmHg 96%
05:00 +14°C° 0 mm 3 m/s 741 mmHg 92%
06:00 +16°C° 0 mm 3 m/s 741 mmHg 89%
07:00 +15°C° 0 mm 4 m/s 741 mmHg 86%
08:00 +18°C° 0 mm 4 m/s 742 mmHg 76%
09:00 +20°C° 0 mm 5 m/s 742 mmHg 65%
10:00 +22°C° 0 mm 5 m/s 742 mmHg 55%
11:00 +23°C° 0 mm 6 m/s 742 mmHg 51%
12:00 +24°C° 0 mm 6 m/s 742 mmHg 46%
13:00 +26°C° 0 mm 6 m/s 742 mmHg 42%
14:00 +24°C° 0 mm 6 m/s 742 mmHg 42%
15:00 +24°C° 0 mm 6 m/s 742 mmHg 42%
16:00 +24°C° 0 mm 6 m/s 742 mmHg 41%
17:00 +23°C° 0 mm 5 m/s 742 mmHg 45%
18:00 +22°C° 0 mm 5 m/s 742 mmHg 48%
19:00 +20°C° 0 mm 4 m/s 742 mmHg 51%
20:00 +18°C° 0 mm 3 m/s 743 mmHg 57%
21:00 +16°C° 0 mm 3 m/s 743 mmHg 62%
22:00 +14°C° 0 mm 2 m/s 743 mmHg 68%
23:00 +14°C° 0 mm 2 m/s 743 mmHg 70%

Poimâine, 7 August, Sâmbătă

Timp Temperatura Precipitaţii Vânt Presiune Umiditate
00:00 +13°C° 0 mm 2 m/s 743 mmHg 73%
01:00 +12°C° 0 mm 2 m/s 743 mmHg 76%
02:00 +12°C° 0 mm 2 m/s 743 mmHg 78%
03:00 +11°C° 0 mm 1 m/s 744 mmHg 80%
04:00 +11°C° 0 mm 1 m/s 744 mmHg 82%
05:00 +12°C° 0 mm 2 m/s 744 mmHg 76%
06:00 +14°C° 0 mm 2 m/s 744 mmHg 71%
07:00 +15°C° 0 mm 2 m/s 744 mmHg 65%
08:00 +17°C° 0 mm 3 m/s 744 mmHg 59%
09:00 +18°C° 0 mm 4 m/s 744 mmHg 53%
10:00 +20°C° 0 mm 5 m/s 744 mmHg 48%
11:00 +21°C° 0 mm 5 m/s 744 mmHg 45%
12:00 +21°C° 0 mm 6 m/s 744 mmHg 42%
13:00 +22°C° 0 mm 6 m/s 744 mmHg 39%
14:00 +22°C° 0 mm 6 m/s 744 mmHg 39%
15:00 +22°C° 0 mm 6 m/s 744 mmHg 38%
16:00 +22°C° 0 mm 6 m/s 744 mmHg 38%
17:00 +21°C° 0 mm 5 m/s 744 mmHg 43%
18:00 +20°C° 0 mm 5 m/s 744 mmHg 47%
19:00 +19°C° 0 mm 4 m/s 744 mmHg 52%
20:00 +17°C° 0 mm 3 m/s 744 mmHg 59%
21:00 +15°C° 0 mm 2 m/s 745 mmHg 66%
22:00 +13°C° 0 mm 2 m/s 745 mmHg 73%
23:00 +13°C° 0 mm 1 m/s 745 mmHg 75%

8 August, Duminică

Timp Temperatura Precipitaţii Vânt Presiune Umiditate
00:00 +12°C° 0 mm 1 m/s 745 mmHg 78%
01:00 +12°C° 0 mm 1 m/s 745 mmHg 81%
02:00 +11°C° 0 mm 1 m/s 745 mmHg 83%
03:00 +11°C° 0 mm 1 m/s 746 mmHg 85%
04:00 +10°C° 0 mm 1 m/s 746 mmHg 87%
05:00 +10°C° 0 mm 2 m/s 746 mmHg 81%
06:00 +12°C° 0 mm 3 m/s 746 mmHg 76%
07:00 +13°C° 0 mm 3 m/s 746 mmHg 71%
08:00 +15°C° 0 mm 4 m/s 746 mmHg 63%
09:00 +17°C° 0 mm 5 m/s 746 mmHg 56%
10:00 +19°C° 0 mm 5 m/s 746 mmHg 48%
11:00 +20°C° 0 mm 6 m/s 746 mmHg 44%
12:00 +22°C° 0 mm 6 m/s 746 mmHg 40%
13:00 +23°C° 0 mm 6 m/s 746 mmHg 36%
14:00 +23°C° 0 mm 6 m/s 746 mmHg 36%
15:00 +23°C° 0 mm 6 m/s 746 mmHg 37%
16:00 +23°C° 0 mm 6 m/s 746 mmHg 38%
17:00 +22°C° 0 mm 5 m/s 746 mmHg 44%
18:00 +21°C° 0 mm 4 m/s 746 mmHg 51%
19:00 +20°C° 0 mm 3 m/s 746 mmHg 58%
20:00 +18°C° 0 mm 3 m/s 747 mmHg 66%
21:00 +16°C° 0 mm 2 m/s 747 mmHg 73%
22:00 +14°C° 0 mm 1 m/s 747 mmHg 80%
23:00 +14°C° 0 mm 1 m/s 747 mmHg 83%

9 August, Luni

Timp Temperatura Precipitaţii Vânt Presiune Umiditate
00:00 +13°C° 0 mm 1 m/s 747 mmHg 85%
01:00 +13°C° 0 mm 1 m/s 747 mmHg 88%
02:00 +12°C° 0 mm 1 m/s 747 mmHg 89%
03:00 +12°C° 0 mm 1 m/s 747 mmHg 90%
04:00 +11°C° 0 mm 1 m/s 748 mmHg 90%
05:00 +13°C° 0 mm 1 m/s 748 mmHg 85%
06:00 +14°C° 0 mm 1 m/s 748 mmHg 80%
07:00 +15°C° 0 mm 1 m/s 748 mmHg 75%
08:00 +17°C° 0 mm 2 m/s 748 mmHg 66%
09:00 +19°C° 0 mm 2 m/s 748 mmHg 57%
10:00 +21°C° 0 mm 3 m/s 747 mmHg 48%
11:00 +24°C° 0 mm 3 m/s 747 mmHg 45%
12:00 +25°C° 0 mm 3 m/s 747 mmHg 42%
13:00 +26°C° 0 mm 4 m/s 747 mmHg 38%
14:00 +26°C° 0 mm 4 m/s 747 mmHg 39%
15:00 +27°C° 0 mm 4 m/s 747 mmHg 40%
16:00 +27°C° 0 mm 4 m/s 747 mmHg 41%
17:00 +25°C° 0 mm 3 m/s 747 mmHg 47%
18:00 +24°C° 0 mm 3 m/s 747 mmHg 54%
19:00 +23°C° 0 mm 2 m/s 747 mmHg 60%
20:00 +21°C° 0 mm 1 m/s 747 mmHg 64%
21:00 +20°C° 0 mm 1 m/s 747 mmHg 68%
22:00 +17°C° 0 mm 0 m/s 747 mmHg 73%
23:00 +17°C° 0 mm 0 m/s 746 mmHg 75%

10 August, Marţi

Timp Temperatura Precipitaţii Vânt Presiune Umiditate
00:00 +16°C° 0 mm 0 m/s 746 mmHg 76%
01:00 +16°C° 0 mm 0 m/s 746 mmHg 78%
02:00 +15°C° 0 mm 0 m/s 746 mmHg 80%
03:00 +15°C° 0 mm 0 m/s 746 mmHg 82%
04:00 +14°C° 0 mm 0 m/s 746 mmHg 84%
05:00 +18°C° 0 mm 1 m/s 746 mmHg 78%
06:00 +19°C° 0 mm 1 m/s 746 mmHg 73%
07:00 +21°C° 0 mm 1 m/s 746 mmHg 67%
08:00 +23°C° 0 mm 1 m/s 746 mmHg 60%
09:00 +25°C° 0 mm 2 m/s 746 mmHg 53%
10:00 +27°C° 0 mm 2 m/s 745 mmHg 46%
11:00 +28°C° 0 mm 2 m/s 745 mmHg 42%
12:00 +29°C° 0 mm 2 m/s 745 mmHg 38%
13:00 +31°C° 0 mm 2 m/s 744 mmHg 33%
14:00 +31°C° 0 mm 2 m/s 744 mmHg 33%
15:00 +31°C° 0 mm 2 m/s 744 mmHg 32%
16:00 +32°C° 0 mm 2 m/s 743 mmHg 31%
17:00 +30°C° 0 mm 2 m/s 743 mmHg 38%
18:00 +28°C° 0 mm 1 m/s 743 mmHg 45%
19:00 +26°C° 0 mm 1 m/s 743 mmHg 53%
20:00 +25°C° 0.1 mm 1 m/s 743 mmHg 58%
21:00 +23°C° 0.1 mm 1 m/s 743 mmHg 64%
22:00 +22°C° 0.1 mm 1 m/s 743 mmHg 70%
23:00 +21°C° 0.1 mm 1 m/s 742 mmHg 74%
Arată mai mult

Formular de consimțământ

Meteoprog și furnizorii noștri de servicii pot stoca și accesa date personale, precum cookies, identificatori de dispozitiv sau alte tehnologii similare pe dispozitivul dumneavoastră și procesa astfel de date pentru a personaliza conținutul și reclamele, dar și pentru a oferi caracteristici de social media și pentru a analiza traficul.

  • Stocarea și/sau accesarea informațiilor pe dispozitivul dumneavoastră

    Cookies, identificatori de dispozitiv sau alte informații pot fi stocate sau accesate pe dispozitiv în scopurile indicate mai sus.

  • Reclame și conținut personalizat, evaluarea reclamelor și a conținutului, informații despre audiențe și dezvoltarea produselor

    Reclamele și conținutul pot fi personalizate pe baza unui profil. Pot fi adăugate date suplimentare pentru a personaliza mai bine reclamele și conținutul. Performanța reclamelor și conținutului poate fi măsurată. Pot fi obținute informații despre utilizatorii care au văzut reclamele și conținutul. Aceste date pot fi utilizate pentru a dezvolta sau îmbunătăți experiența utilizatorilor, sistemele și software-ul.

Dând clic pe ‘Sunt de acord’, permiteți utilizarea cookie-urilor menționate, a identificatorilor de dispozitiv, balizelor web sau altor tehnologii similare. Setările pot fi modificate din browser-ul dispozitivului dumneavoastră.

În anumite scopuri, interesele legitime pot prima asupra consimțământului. Puteți citi mai multe informații în acest sens în Politica privind Confidențialitatea Datelor și Cookie.